Home   Weather   Alfeld (Leine)   Past weeks

Flag for Germany Past Weather in Alfeld (Leine), Lower Saxony, Germany — Yesterday and Last 2 Weeks

Now
64 °F

Drizzle. Mostly cloudy.


Feels Like: 64 °F
Forecast: 62 / 68 °F
Wind: 7 mph from Southwest

Location: Braunschweig Wolfsburg

Current Time: Aug 17, 2017 at 10:13:48 am

Latest Report: Aug 17, 2017 at 9:20 am


Visibility: N/A

Pressure: 30.07 "Hg

Humidity: 100%

Dew Point: 64 °F

Location of Alfeld (Leine)Location

Past Weather in Alfeld (Leine) — Graph

°F

Alfeld (Leine) Temperature Yesterday

Maximum temperature yesterday: 75 °F (at 3:50 pm)
Minimum temperature yesterday: 63 °F (at 6:50 am)
Average temperature yesterday: 69 °F

High & Low Weather Summary for the Past Weeks

 TemperatureHumidityPressure
High82 °F (Aug 15, 2:20 pm)100% (Aug 2, 8:20 am)30.24 "Hg (Aug 2, 8:20 am)
Low50 °F (Aug 7, 6:50 am)39% (Aug 7, 3:20 pm)29.77 "Hg (Aug 3, 2:50 pm)
Average68 °F73%30.01 "Hg
* Reported Aug 2 8:20 am — Aug 17 8:50 am, Alfeld (Leine). Weather by CustomWeather, © 2017

Note: Actual official high and low records may vary slightly from our data, if they occured in-between our weather recording intervals... More about our weather records

Advertising

Alfeld (Leine) Weather History for the Previous 24 Hours

Scroll right to see more
 ConditionsComfort  
Time TempWeatherWind HumidityBarometerVisibility
8:50 am
Thu, Aug 17
64 °FSunny.8 mph100%30.07 "Hg10 mi
8:20 am64 °FSunny.7 mph100%30.07 "Hg10 mi
7:50 am63 °FSunny.6 mph100%30.07 "Hg10 mi
7:20 am59 °FSunny.7 mph100%30.07 "Hg10 mi
6:50 am57 °FClear.7 mph100%30.07 "Hg5 mi
9:50 pm
Wed, Aug 16
63 °FClear.6 mph100%30.15 "Hg10 mi
9:20 pm64 °FClear.No wind94%30.15 "Hg10 mi
8:50 pm64 °FClear.No wind100%30.15 "Hg10 mi
8:20 pm68 °FSunny.No wind73%30.15 "Hg10 mi
7:50 pm70 °FSunny.3 mph69%30.15 "Hg10 mi
7:20 pm72 °FSunny.3 mph65%30.15 "Hg10 mi
6:50 pm72 °FPassing clouds.5 mph65%30.15 "HgN/A
6:20 pm72 °FPassing clouds.5 mph65%30.15 "HgN/A
5:50 pm73 °FPassing clouds.5 mph61%30.15 "HgN/A
5:20 pm75 °FScattered clouds.5 mph54%30.15 "HgN/A
4:50 pm73 °FPassing clouds.3 mph53%30.15 "HgN/A
4:20 pm75 °FPassing clouds.8 mph54%30.15 "HgN/A
3:50 pm75 °FPassing clouds.6 mph57%30.15 "HgN/A
3:20 pm73 °FPassing clouds.6 mph57%30.15 "HgN/A
2:50 pm73 °FPassing clouds.6 mph61%30.15 "HgN/A
2:20 pm70 °FPartly sunny.8 mph78%30.18 "HgN/A
1:20 pm70 °FBroken clouds.7 mph83%30.15 "HgN/A
12:50 pm70 °FBroken clouds.8 mph83%30.15 "HgN/A
12:20 pm70 °FBroken clouds.7 mph88%30.15 "HgN/A
11:50 am68 °FBroken clouds.6 mph88%30.15 "HgN/A
11:20 am68 °FPartly sunny.8 mph88%30.15 "HgN/A
10:50 am68 °FPartly sunny.8 mph94%30.15 "HgN/A
10:20 am66 °FPartly sunny.9 mph100%30.15 "Hg6 mi
Weather by CustomWeather, © 2017

See weather overviewHow to use our weather pages